GALAXY 25 (G-25) 1 24812C 97026A 22216.00000000 .00000087 00000+0 00000+0 0 2169 2 24812 3.8027 83.1858 0004579 24.7100 270.7857 1.00268277 11 GALAXY 25 (G-25) [PM] 1 24812C 97026A 22217.72771991 .00000087 00000+0 00000+0 0 2174 2 24812 3.8095 83.1560 0004633 13.5545 185.6328 1.00272578 12 GALAXY 25 (G-25) 1 24812C 97026A 22219.93656250 .00000087 00000+0 00000+0 0 2191 2 24812 3.8175 83.1708 0004319 27.7996 248.7406 1.00270812 10 INTELSAT 5 (IS-5) [PM] 1 24916C 97046A 22212.00000000 .00000034 00000+0 00000+0 0 2120 2 24916 7.3144 60.7542 0004119 71.1552 342.8393 1.00273289 18 INTELSAT 5 (IS-5) 1 24916C 97046A 22216.00000000 .00000034 00000+0 00000+0 0 2168 2 24916 7.3246 60.6966 0004357 69.5258 348.4690 1.00273185 15 INTELSAT 5 (IS-5) 1 24916C 97046A 22219.93656250 .00000034 00000+0 00000+0 0 2190 2 24916 7.3361 60.6919 0005294 83.3589 315.6682 1.00274655 13 GALAXY 11 (G-11) 1 26038C 99071A 22216.00000000 -.00000072 00000+0 00000+0 0 2168 2 26038 3.1157 87.1028 0000301 304.4855 187.8504 1.00270236 12 GALAXY 11 (G-11) 1 26038C 99071A 22220.00000000 -.00000072 00000+0 00000+0 0 2208 2 26038 3.1318 87.0718 0000354 326.9941 169.3144 1.00269690 16 INTELSAT 9 (IS-9) [PM] 1 26451C 00043A 22214.65399306 -.00000191 00000+0 00000+0 0 2147 2 26451 7.3059 60.8941 0004030 33.2703 42.4987 1.00272596 14 INTELSAT 9 (IS-9) 1 26451C 00043A 22216.00000000 -.00000191 00000+0 00000+0 0 2160 2 26451 7.3103 60.8682 0000354 346.2332 215.4277 1.00276791 11 INTELSAT 9 (IS-9) 1 26451C 00043A 22219.93656250 -.00000191 00000+0 00000+0 0 2192 2 26451 7.3220 60.8689 0000488 346.8250 195.8829 1.00273436 18 INTELSAT 1R (IS-1R) 1 26608C 00072A 22216.00000000 -.00000047 00000+0 00000+0 0 2166 2 26608 4.5831 80.1286 0001171 25.3933 4.1066 1.00272283 18 INTELSAT 1R (IS-1R) 1 26608C 00072A 22220.00000000 -.00000047 00000+0 00000+0 0 2206 2 26608 4.5970 80.1358 0001282 18.6913 14.7378 1.00271615 19 INTELSAT 10 (IS-10) 1 26766C 01019A 22216.00000000 .00000127 00000+0 00000+0 0 2161 2 26766 5.6850 72.9311 0004270 29.9034 27.5101 1.00272533 16 INTELSAT 10 (IS-10) 1 26766C 01019A 22219.93656250 .00000127 00000+0 00000+0 0 2193 2 26766 5.6985 72.9224 0004312 43.0540 355.4065 1.00274106 14 INTELSAT 10 (IS-10) [PM] 1 26766C 01019A 22220.25835648 .00000127 00000+0 00000+0 0 2202 2 26766 5.6996 72.9334 0002760 16.4130 138.2118 1.00268975 15 INTELSAT 901 1 26824C 01024A 22216.00000000 -.00000112 00000+0 00000+0 0 2167 2 26824 0.0453 266.0773 0001171 231.3124 147.6521 1.00270289 19 INTELSAT 901 1 26824C 01024A 22219.93656250 -.00000148 00000+0 00000+0 0 2198 2 26824 0.0044 326.4624 0001681 184.9493 114.6728 1.00270521 11 INTELSAT 902 1 26900C 01039A 22216.00000000 -.00000192 00000+0 00000+0 0 2166 2 26900 2.5182 88.4621 0002688 38.3018 135.6893 1.00272304 18 INTELSAT 902 1 26900C 01039A 22219.93656250 -.00000192 00000+0 00000+0 0 2198 2 26900 2.5337 88.4415 0002882 44.5015 110.5444 1.00270018 17 INTELSAT 902 [PM] 1 26900C 01039A 22221.76957176 -.00000192 00000+0 00000+0 0 2216 2 26900 2.5382 88.4840 0003071 44.7143 51.9695 1.00270891 19 INTELSAT 904 1 27380C 02007A 22216.00000000 -.00000123 00000+0 00000+0 0 2169 2 27380 3.3499 85.4205 0002663 47.4021 150.2130 1.00272690 19 INTELSAT 904 [PM] 1 27380C 02007A 22219.33630787 -.00000123 00000+0 00000+0 0 2192 2 27380 3.3645 71.3408 0003530 44.8713 291.1879 1.00272905 18 INTELSAT 904 1 27380C 02007A 22219.93656250 -.00000123 00000+0 00000+0 0 2191 2 27380 3.3650 85.4017 0002837 38.1133 140.5672 1.00272299 11 INTELSAT 904 [PM] 1 27380C 02007A 22225.83488426 -.00000123 00000+0 00000+0 0 2252 2 27380 3.3763 85.3813 0002829 53.7146 94.1820 1.00271547 11 INTELSAT 905 [PM] 1 27438C 02027A 22213.48767361 -.00000094 00000+0 00000+0 0 2138 2 27438 3.1649 86.2447 0002963 46.3847 328.5058 1.00272782 13 INTELSAT 905 1 27438C 02027A 22216.00000000 -.00000094 00000+0 00000+0 0 2162 2 27438 3.1719 86.1650 0002405 37.7775 164.1098 1.00272862 18 INTELSAT 905 1 27438C 02027A 22219.93656250 -.00000094 00000+0 00000+0 0 2194 2 27438 3.1872 86.1459 0002500 42.6956 140.2488 1.00271454 11 GALAXY 3C (G-3C) 1 27445C 02030A 22216.00000000 -.00000062 00000+0 00000+0 0 2169 2 27445 0.0892 75.3997 0000723 321.8399 180.4762 1.00270592 15 GALAXY 3C (G-3C) 1 27445C 02030A 22220.00000000 -.00000062 00000+0 00000+0 0 2209 2 27445 0.1045 78.3515 0000684 331.8395 171.4512 1.00270217 15 INTELSAT 906 [PM] 1 27513C 02041A 22215.55325232 .00000105 00000+0 00000+0 0 2159 2 27513 2.1854 89.9628 0003476 33.8623 91.5936 1.00270295 17 INTELSAT 906 1 27513C 02041A 22216.00000000 .00000105 00000+0 00000+0 0 2164 2 27513 2.1869 89.9480 0003278 41.7710 244.9680 1.00270591 13 INTELSAT 906 1 27513C 02041A 22219.93656250 .00000105 00000+0 00000+0 0 2196 2 27513 2.2019 89.9220 0003361 45.5647 222.2323 1.00271577 15 GALAXY 12 (G-12) 1 27715C 03013B 22216.00000000 .00000149 00000+0 00000+0 0 2166 2 27715 3.3829 85.0525 0002350 33.8779 64.6188 1.00269905 17 GALAXY 12 (G-12) 1 27715C 03013B 22219.93656250 .00000149 00000+0 00000+0 0 2198 2 27715 3.3976 85.0369 0002458 41.7106 37.8341 1.00271078 14 GALAXY 12 (G-12) [PM] 1 27715C 03013B 22221.60598380 .00000149 00000+0 00000+0 0 2217 2 27715 3.4021 85.0670 0002328 61.6797 260.4726 1.00269689 10 GALAXY 23 (G-23) 1 27854C 03034A 22216.00000000 .00000103 00000+0 00000+0 0 2163 2 27854 0.0663 268.6378 0003113 222.1454 60.7626 1.00272018 10 GALAXY 23 (G-23) [PM] 1 27854C 03034A 22218.61291667 .00000103 00000+0 00000+0 0 2185 2 27854 0.0585 266.1077 0003268 225.6927 282.9749 1.00270499 11 GALAXY 23 (G-23) 1 27854C 03034A 22219.93656250 .00000103 00000+0 00000+0 0 2195 2 27854 0.0542 262.1553 0003281 231.3374 39.0929 1.00270156 15 GALAXY 23 (G-23) [PM] 1 27854C 03034A 22227.58981482 .00000104 00000+0 00000+0 0 2273 2 27854 0.0449 286.7384 0003045 227.0886 261.4588 1.00271308 15 GALAXY 13 [PM] 1 27954C 03044A 22201.60096065 .00000138 00000+0 00000+0 0 2013 2 27954 0.0158 90.0701 0000812 243.9622 53.6220 1.00271799 14 GALAXY 13 1 27954C 03044A 22216.00000000 .00000138 00000+0 00000+0 0 2163 2 27954 0.0022 35.7704 0000806 357.7014 152.0587 1.00271785 10 GALAXY 13 1 27954C 03044A 22219.93656250 .00000139 00000+0 00000+0 0 2196 2 27954 0.0069 92.5967 0002935 79.2121 354.7733 1.00268244 13 INTELSAT 10-02 1 28358C 04022A 22216.00000000 .00000079 00000+0 00000+0 0 2163 2 28358 0.0512 266.8798 0001067 232.7322 171.9515 1.00270505 17 INTELSAT 10-02 1 28358C 04022A 22220.00000000 .00000079 00000+0 00000+0 0 2203 2 28358 0.0491 259.4106 0000948 239.1066 176.9807 1.00269780 19 GALAXY 28 (G-28) [PM] 1 28702C 05022A 22215.18700232 -.00000095 00000+0 00000+0 0 2157 2 28702 0.0118 30.0165 0002082 95.0059 165.0376 1.00273149 12 GALAXY 28 (G-28) 1 28702C 05022A 22216.00000000 -.00000095 00000+0 00000+0 0 2166 2 28702 0.0112 54.1262 0002203 82.6805 86.7351 1.00270805 15 GALAXY 28 (G-28) [PM] 1 28702C 05022A 22219.82802083 -.00000095 00000+0 00000+0 0 2193 2 28702 0.0171 64.5894 0002219 75.5203 25.2844 1.00269930 18 GALAXY 28 (G-28) 1 28702C 05022A 22220.00000000 -.00000095 00000+0 00000+0 0 2206 2 28702 0.0126 56.4883 0002416 87.0211 83.9736 1.00269504 10 GALAXY 28 (G-28) [PM] 1 28702C 05022A 22221.02708333 -.00000095 00000+0 00000+0 0 2214 2 28702 0.0159 60.9077 0002321 67.9204 109.4113 1.00269687 10 GALAXY 14 (G-14) [PM] 1 28790C 05030A 22213.68055556 .00000246 00000+0 00000+0 0 2133 2 28790 1.3693 91.8680 0002106 24.9245 111.3597 1.00269298 12 GALAXY 14 (G-14) 1 28790C 05030A 22216.00000000 .00000246 00000+0 00000+0 0 2169 2 28790 1.3756 91.7046 0002200 32.6535 221.0675 1.00270700 16 GALAXY 14 (G-14) 1 28790C 05030A 22219.93656250 .00000246 00000+0 00000+0 0 2191 2 28790 1.3906 91.6895 0002291 35.9309 198.8430 1.00272674 11 GALAXY 15 (G-15) 1 28884C 05041A 22216.00000000 .00000164 00000+0 00000+0 0 2164 2 28884 0.0449 278.5447 0001919 210.2004 50.7948 1.00272167 15 GALAXY 15 (G-15) [PM] 1 28884C 05041A 22218.62887732 .00000164 00000+0 00000+0 0 2181 2 28884 0.0421 277.3439 0002093 209.9438 281.2469 1.00270111 19 GALAXY 15 (G-15) 1 28884C 05041A 22219.93656250 .00000164 00000+0 00000+0 0 2196 2 28884 0.0419 281.2759 0002107 207.8072 31.4991 1.00270047 15 GALAXY 15 (G-15) [PM] 1 28884C 05041A 22222.76165509 .00000074 00000+0 00000+0 0 2227 2 28884 0.0541 272.6148 0002087 222.5104 325.2634 1.00270834 16 GALAXY 16 (G-16) 1 29236C 06023A 22216.00000000 -.00000037 00000+0 00000+0 0 2167 2 29236 0.0600 270.0383 0002892 220.6240 82.8698 1.00272278 11 GALAXY 16 (G-16) [PM] 1 29236C 06023A 22219.66445602 -.00000037 00000+0 00000+0 0 2196 2 29236 0.0634 267.8632 0003142 228.8737 319.6160 1.00270399 16 GALAXY 16 (G-16) 1 29236C 06023A 22219.93656250 -.00000039 00000+0 00000+0 0 2191 2 29236 0.0628 267.5184 0003139 229.7278 57.3319 1.00270109 15 GALAXY 16 (G-16) [PM] 1 29236C 06023A 22220.54978009 -.00000037 00000+0 00000+0 0 2209 2 29236 0.0602 265.8026 0003183 231.8363 278.2992 1.00270282 14 GALAXY 16 (G-16) [PM] 1 29236C 06023A 22221.97109954 -.00000031 00000+0 00000+0 0 2217 2 29236 0.0566 265.6618 0003110 232.5534 70.7912 1.00271557 19 GALAXY 17 (G-17) 1 31307C 07016B 22216.00000000 -.00000114 00000+0 00000+0 0 2168 2 31307 0.0346 287.1730 0002649 202.1176 92.2488 1.00271094 15 GALAXY 17 (G-17) [PM] 1 31307C 07016B 22217.96359954 -.00000095 00000+0 00000+0 0 2178 2 31307 0.0198 335.8034 0002730 155.8313 78.7295 1.00272101 11 GALAXY 17 (G-17) 1 31307C 07016B 22219.93656250 -.00000088 00000+0 00000+0 0 2190 2 31307 0.0050 37.6744 0002755 97.4042 67.4971 1.00271346 16 GALAXY 17 (G-17) [PM] 1 31307C 07016B 22222.97309028 -.00000098 00000+0 00000+0 0 2221 2 31307 0.0035 85.5816 0002801 53.8790 79.2470 1.00271575 18 INTELSAT 11 (IS-11) 1 32253C 07044B 22216.00000000 -.00000191 00000+0 00000+0 0 2165 2 32253 0.0035 80.5062 0001908 71.2456 117.7953 1.00277109 10 INTELSAT 11 (IS-11) [PM] 1 32253C 07044B 22219.52304398 -.00004701 00000+0 00000+0 0 2196 2 32253 0.0001 43.0389 0002116 106.4469 311.8333 1.00270934 14 INTELSAT 11 (IS-11) 1 32253C 07044B 22219.93656250 -.00000206 00000+0 00000+0 0 2194 2 32253 0.0001 47.7473 0002130 102.5548 100.2895 1.00270746 14 INTELSAT 11 (IS-11) [PM] 1 32253C 07044B 22220.53248843 -.00000174 00000+0 00000+0 0 2203 2 32253 0.0000 66.1906 0002055 84.2491 315.2709 1.00270659 13 INTELSAT 11 (IS-11) [PM] 1 32253C 07044B 22223.37600694 -.00000190 00000+0 00000+0 0 2235 2 32253 0.0016 74.9981 0002099 44.1133 293.0707 1.00271474 13 HORIZONS-2 1 32388C 07063B 22216.00000000 .00000232 00000+0 00000+0 0 2160 2 32388 0.0251 333.8853 0004893 118.3615 247.5551 0.99708874 18 HORIZONS-2 1 32388C 07063B 22219.93656250 .00000201 00000+0 00000+0 0 2198 2 32388 0.0125 44.9660 0004844 50.2392 217.6556 0.99710721 13 HORIZONS-2 [PM] 1 32388C 07063B 22220.53125000 .00000196 00000+0 00000+0 0 2205 2 32388 0.0120 45.0129 0004800 51.4911 69.8284 0.99710323 15 GALAXY 18 (G-18) 1 32951C 08024A 22216.00000000 .00000115 00000+0 00000+0 0 2164 2 32951 0.0040 91.3105 0003561 48.1321 50.0998 1.00271969 16 GALAXY 18 (G-18) [PM] 1 32951C 08024A 22218.51248843 -.00003054 00000+0 00000+0 0 2189 2 32951 0.0001 40.7709 0003622 89.3665 246.3794 1.00270826 12 GALAXY 18 (G-18) 1 32951C 08024A 22219.93656250 .00000115 00000+0 00000+0 0 2196 2 32951 0.0210 318.0972 0003678 185.5003 26.9828 1.00270520 14 GALAXY 18 (G-18) [PM] 1 32951C 08024A 22222.54304398 -.00002526 00000+0 00000+0 0 2223 2 32951 0.0439 267.6578 0003304 213.0071 270.8043 1.00270564 13 INTELSAT 25 (IS-25) 1 33153C 08034A 22216.00000000 -.00000134 00000+0 00000+0 0 2162 2 33153 0.0118 122.8209 0003191 20.3528 137.8651 1.00272951 14 INTELSAT 25 (IS-25) [PM] 1 33153C 08034A 22219.83996528 -.00000134 00000+0 00000+0 0 2198 2 33153 0.0111 92.3064 0003348 35.1245 99.7762 1.00272027 14 INTELSAT 25 (IS-25) 1 33153C 08034A 22219.93656250 -.00000130 00000+0 00000+0 0 2190 2 33153 0.0147 113.3712 0003340 27.1220 121.5830 1.00272122 19 GALAXY 19 (G-19) 1 33376C 08045A 22216.00000000 -.00000049 00000+0 00000+0 0 2166 2 33376 0.0600 273.6009 0003164 223.1263 78.8126 1.00270864 11 GALAXY 19 (G-19) 1 33376C 08045A 22219.93656250 -.00000050 00000+0 00000+0 0 2190 2 33376 0.0491 263.7979 0003334 237.6185 55.1628 1.00271000 15 GALAXY 19 (G-19) [PM] 1 33376C 08045A 22220.65615741 -.00000049 00000+0 00000+0 0 2201 2 33376 0.0617 269.2178 0003400 233.2312 313.8927 1.00270516 12 INTELSAT 14 (IS-14) 1 36097C 09064A 22216.00000000 -.00000183 00000+0 00000+0 0 2160 2 36097 0.0115 337.2483 0002703 153.3432 136.9330 1.00273738 14 INTELSAT 14 (IS-14) [PM] 1 36097C 09064A 22216.80009259 -.00003875 00000+0 00000+0 0 2164 2 36097 0.0158 329.9272 0002743 161.4274 64.9968 1.00273371 13 INTELSAT 14 (IS-14) 1 36097C 09064A 22219.93656250 -.00000199 00000+0 00000+0 0 2199 2 36097 0.0001 74.3397 0002840 61.5749 112.6668 1.00271933 14 INTELSAT 14 (IS-14) [PM] 1 36097C 09064A 22224.84472222 -.00000183 00000+0 00000+0 0 2249 2 36097 0.0110 109.2117 0002748 35.0474 76.0844 1.00272435 18 INTELSAT 15 (IS-15) 1 36106C 09067A 22216.00000000 -.00000095 00000+0 00000+0 0 2166 2 36106 0.0091 47.8373 0002546 90.3786 259.4772 1.00272728 16 INTELSAT 15 (IS-15) 1 36106C 09067A 22219.93656250 -.00000095 00000+0 00000+0 0 2198 2 36106 0.0192 68.9512 0002689 72.3833 237.4059 1.00272059 19 INTELSAT 15 (IS-15) [PM] 1 36106C 09067A 22220.17312500 -.00004822 00000+0 00000+0 0 2207 2 36106 0.0338 303.3384 0002741 196.4318 324.3660 1.00270022 11 INTELSAT 16 (IS-16) 1 36397C 10006A 22216.00000000 -.00000155 00000+0 00000+0 0 2160 2 36397 0.0060 54.7658 0002228 73.6682 107.9016 1.00273615 17 INTELSAT 16 (IS-16) 1 36397C 10006A 22219.93656250 -.00000155 00000+0 00000+0 0 2192 2 36397 0.0179 73.5658 0002343 60.7625 83.0623 1.00271814 16 INTELSAT 16 (IS-16) [PM] 1 36397C 10006A 22220.62222222 .00000066 00000+0 00000+0 0 2200 2 36397 0.0279 316.6767 0002424 174.8669 333.3596 1.00269276 13 INTELSAT 17 (IS-17) 1 37238C 10065B 22216.00000000 .00000080 00000+0 00000+0 0 2166 2 37238 0.0187 248.3758 0002762 241.1288 249.0308 1.00266820 13 INTELSAT 17 (IS-17) [PM] 1 37238C 10065B 22219.70585648 -.00003360 00000+0 00000+0 0 2190 2 37238 0.0010 182.2813 0002878 319.0568 134.9529 1.00270100 13 INTELSAT 17 (IS-17) 1 37238C 10065B 22219.93656250 -.00002738 00000+0 00000+0 0 2191 2 37238 0.0001 202.1862 0003014 296.0906 221.2926 1.00272673 10 INTELSAT 17 (IS-17) [PM] 1 37238C 10065B 22221.04293982 .00000084 00000+0 00000+0 0 2219 2 37238 0.0468 244.9336 0002914 228.9959 285.0214 1.00270734 11 INTELSAT NEW DAWN 1 37392C 11016A 22216.00000000 .00000245 00000+0 00000+0 0 2167 2 37392 0.0159 200.1109 0001172 261.2148 244.0084 1.00273131 10 INTELSAT NEW DAWN [PM] 1 37392C 11016A 22219.16569444 -.00003021 00000+0 00000+0 0 2198 2 37392 0.0173 181.0750 0001578 282.4914 304.5620 1.00269750 11 INTELSAT NEW DAWN 1 37392C 11016A 22219.93656250 .00000243 00000+0 00000+0 0 2197 2 37392 0.0148 165.7954 0001541 299.4218 221.1775 1.00270148 11 INTELSAT NEW DAWN [PM] 1 37392C 11016A 22220.34949074 .00000243 00000+0 00000+0 0 2205 2 37392 0.0143 159.2683 0001531 307.4302 8.7558 1.00269762 14 INTELSAT 18 (IS-18) 1 37834C 11056A 22216.00000000 .00000143 00000+0 00000+0 0 2169 2 37834 0.0249 4.3029 0002161 128.4086 359.8247 1.00271512 17 INTELSAT 18 (IS-18) [PM] 1 37834C 11056A 22219.90133102 .00000143 00000+0 00000+0 0 2194 2 37834 0.0241 6.2900 0002413 127.9410 326.6339 1.00270227 19 INTELSAT 18 (IS-18) 1 37834C 11056A 22219.93656250 .00000143 00000+0 00000+0 0 2191 2 37834 0.0242 6.1760 0002408 128.0491 339.3578 1.00270165 15 INTELSAT 18 (IS-18) [PM] 1 37834C 11056A 22221.63130787 .00000143 00000+0 00000+0 0 2216 2 37834 0.0204 21.0735 0002440 115.5266 228.7551 1.00270662 12 INTELSAT 22 (IS-22) 1 38098C 12011A 22216.00000000 .00000032 00000+0 00000+0 0 2161 2 38098 0.0031 93.1020 0002913 46.0960 245.4312 1.00272662 17 INTELSAT 22 (IS-22) [PM] 1 38098C 12011A 22219.68921296 .00000031 00000+0 00000+0 0 2199 2 38098 0.0234 309.8644 0003009 194.4978 132.0301 1.00270646 14 INTELSAT 22 (IS-22) 1 38098C 12011A 22219.93656250 .00000031 00000+0 00000+0 0 2192 2 38098 0.0032 0.0448 0003015 143.8106 221.8251 1.00270954 13 INTELSAT 22 (IS-22) [PM] 1 38098C 12011A 22220.68184028 -.00000029 00000+0 00000+0 0 2205 2 38098 0.0340 265.5330 0003058 239.0970 130.0840 1.00270799 19 INTELSAT 19 (IS-19) 1 38356C 12030A 22216.00000000 -.00004121 00000+0 00000+0 0 2163 2 38356 0.0001 24.0900 0003131 108.1334 346.3174 1.00273449 10 INTELSAT 19 (IS-19) [PM] 1 38356C 12030A 22217.84027778 .00000017 00000+0 00000+0 0 2177 2 38356 0.0000 44.7831 0003242 86.6543 291.4193 1.00271320 13 INTELSAT 19 (IS-19) 1 38356C 12030A 22219.93656250 .00000033 00000+0 00000+0 0 2192 2 38356 0.0036 82.8109 0003306 50.5578 326.2119 1.00271082 12 INTELSAT 20 (IS-20) [PM] 1 38740C 12043A 22215.37714120 .00000067 00000+0 00000+0 0 2151 2 38740 0.0044 110.9573 0001240 50.6738 354.5630 1.00271992 12 INTELSAT 20 (IS-20) 1 38740C 12043A 22216.00000000 .00000066 00000+0 00000+0 0 2167 2 38740 0.0106 126.4110 0001163 52.1215 202.5058 1.00269845 11 INTELSAT 20 (IS-20) 1 38740C 12043A 22220.00000000 .00000066 00000+0 00000+0 0 2207 2 38740 0.0111 119.9138 0001143 44.8768 220.1886 1.00270729 11 INTELSAT 21 (IS-21) [PM] 1 38749C 12045A 22215.87861111 -.00000283 00000+0 00000+0 0 2151 2 38749 0.0156 331.7875 0002339 158.4278 80.5023 1.00272864 10 INTELSAT 21 (IS-21) 1 38749C 12045A 22216.00000000 -.00003672 00000+0 00000+0 0 2165 2 38749 0.0155 331.9183 0002360 158.9146 123.7047 1.00273008 13 INTELSAT 21 (IS-21) 1 38749C 12045A 22219.93656250 -.00000229 00000+0 00000+0 0 2192 2 38749 0.0023 69.9542 0002495 66.2039 99.4248 1.00271058 10 INTELSAT 21 (IS-21) [PM] 1 38749C 12045A 22222.86369213 -.00000195 00000+0 00000+0 0 2224 2 38749 0.0089 97.4982 0002486 39.1440 75.5788 1.00272173 14 INTELSAT 23 (IS-23) 1 38867C 12057A 22216.00000000 -.00000195 00000+0 00000+0 0 2166 2 38867 0.0078 118.3970 0000525 330.0720 171.0749 1.00285472 14 INTELSAT 23 (IS-23) [PM] 1 38867C 12057A 22219.76719907 -.00000195 00000+0 00000+0 0 2198 2 38867 0.0097 109.9859 0000545 334.4407 95.0413 1.00270261 12 INTELSAT 23 (IS-23) 1 38867C 12057A 22219.93656250 -.00000191 00000+0 00000+0 0 2194 2 38867 0.0106 110.5266 0000549 335.0754 155.0028 1.00270266 13 INTELSAT 23 (IS-23) [PM] 1 38867C 12057A 22221.53776620 -.00000195 00000+0 00000+0 0 2214 2 38867 0.0139 116.7007 0000644 7.1298 334.7795 1.00268269 13 INTELSAT 30 (IS-30) [PM] 1 40271C 14062A 22215.30972222 -.00000063 00000+0 00000+0 0 2155 2 40271 0.0088 352.0002 0002085 73.6269 262.6793 1.00272712 10 INTELSAT 30 (IS-30) 1 40271C 14062A 22216.00000000 -.00003751 00000+0 00000+0 0 2167 2 40271 0.0045 11.9980 0002124 67.8877 137.6024 1.00270804 11 INTELSAT 30 (IS-30) 1 40271C 14062A 22220.00000000 -.00003941 00000+0 00000+0 0 2208 2 40271 0.0000 37.8732 0002344 42.6322 140.9270 1.00270117 11 INTELSAT 34 (IS-34) 1 40874C 15039A 22216.00000000 -.00000204 00000+0 00000+0 0 2161 2 40874 0.0371 267.4041 0000804 136.5888 213.0637 1.00270126 13 INTELSAT 34 (IS-34) [PM] 1 40874C 15039A 22216.31209491 -.00000197 00000+0 00000+0 0 2161 2 40874 0.0372 274.1890 0000900 118.0941 337.4289 1.00273628 17 INTELSAT 34 (IS-34) 1 40874C 15039A 22220.00000000 -.00004354 00000+0 00000+0 0 2201 2 40874 0.0340 299.9253 0000765 130.9061 190.1671 1.00270283 18 INTELSAT 31 (IS-31) 1 41581C 16035A 22216.00000000 -.00003569 00000+0 00000+0 0 2161 2 41581 0.0219 210.7649 0000880 18.8921 347.8349 1.00269891 12 INTELSAT 31 (IS-31) [PM] 1 41581C 16035A 22216.37032407 -.00000055 00000+0 00000+0 0 2164 2 41581 0.0139 195.7953 0000899 33.9340 121.4381 1.00273368 12 INTELSAT 31 (IS-31) 1 41581C 16035A 22220.00000000 -.00003327 00000+0 00000+0 0 2203 2 41581 0.0137 173.6001 0000911 42.2342 5.5976 1.00270257 15 INTELSAT 36 (IS-36) [PM] 1 41747C 16053A 22215.85956019 .00000065 00000+0 00000+0 0 2153 2 41747 0.0232 337.1248 0003167 24.4155 328.7946 1.00272820 10 INTELSAT 36 (IS-36) 1 41747C 16053A 22216.00000000 .00000066 00000+0 00000+0 0 2163 2 41747 0.0125 20.3376 0003165 345.4395 15.2549 1.00271272 11 INTELSAT 36 (IS-36) 1 41747C 16053A 22220.00000000 .00000066 00000+0 00000+0 0 2203 2 41747 0.0113 24.8585 0003259 346.2142 13.9110 1.00271343 10 INTELSAT 33E 1 41748C 16053B 22216.00000000 .00000138 00000+0 00000+0 0 2164 2 41748 0.0378 270.4391 0002133 230.4828 231.6032 1.00272028 16 INTELSAT 33E 1 41748C 16053B 22219.93656250 .00000139 00000+0 00000+0 0 2197 2 41748 0.0133 3.9455 0002285 139.4055 210.2251 1.00273238 13 INTELSAT 33E [PM] 1 41748C 16053B 22221.49709491 .00000140 00000+0 00000+0 0 2212 2 41748 0.0050 40.8167 0001930 87.5348 68.5524 1.00269986 17 INTELSAT 32E [PM] 1 41945C 17007B 22215.18041667 -.00000184 00000+0 00000+0 0 2156 2 41945 0.0001 69.2103 0000663 313.6601 310.6227 1.00274583 14 INTELSAT 32E 1 41945C 17007B 22216.00000000 -.00000179 00000+0 00000+0 0 2169 2 41945 0.0037 88.3955 0000449 344.1825 196.7766 1.00269957 19 INTELSAT 32E 1 41945C 17007B 22219.93656250 -.00000179 00000+0 00000+0 0 2191 2 41945 0.0015 78.8284 0000773 355.2150 176.3686 1.00269848 12 INTELSAT 35E [PM] 1 42818C 17041A 22215.50951389 -.00000148 00000+0 00000+0 0 2151 2 42818 0.0100 292.3053 0001766 190.7104 337.9876 1.00270948 17 INTELSAT 35E 1 42818C 17041A 22216.00000000 -.00000202 00000+0 00000+0 0 2164 2 42818 0.0217 320.8939 0001869 161.7467 155.4194 1.00270813 17 INTELSAT 35E 1 42818C 17041A 22219.93656250 -.00000052 00000+0 00000+0 0 2199 2 42818 0.0344 255.6649 0001963 232.7995 130.6159 1.00269582 18 INTELSAT 35E [PM] 1 42818C 17041A 22221.93753472 -.00000142 00000+0 00000+0 0 2219 2 42818 0.0000 113.6933 0002164 12.9426 134.7485 1.00271777 13 INTELSAT 37E 1 42950C 17059A 22216.00000000 -.00000050 00000+0 00000+0 0 2161 2 42950 0.0043 107.8018 0002991 35.2091 151.5416 1.00272188 18 INTELSAT 37E 1 42950C 17059A 22219.93656250 .00000120 00000+0 00000+0 0 2190 2 42950 0.0006 17.3291 0003329 133.0430 125.2100 1.00270478 13 INTELSAT 37E [PM] 1 42950C 17059A 22219.98125000 -.00000049 00000+0 00000+0 0 2190 2 42950 0.0023 12.1119 0003326 138.2868 141.3147 1.00270525 16 AZERSPACE 2 (IS-38) 1 43632C 18074A 22216.00000000 .00000227 00000+0 00000+0 0 2162 2 43632 0.0039 93.9430 0001627 40.1726 223.5218 1.00271238 14 AZERSPACE 2 (IS-38) 1 43632C 18074A 22220.00000000 .00000227 00000+0 00000+0 0 2202 2 43632 0.0030 87.5618 0001704 40.4686 233.5450 1.00269981 17 HORIZONS-3E 1 43633C 18074B 22216.00000000 .00000059 00000+0 00000+0 0 2166 2 43633 0.0074 226.6048 0001570 83.0120 171.9257 1.00269403 15 HORIZONS-3E 1 43633C 18074B 22220.00000000 .00000030 00000+0 00000+0 0 2205 2 43633 0.0082 337.0189 0001593 331.0498 177.4001 1.00269060 13 INTELSAT 39 (IS-39) 1 44476C 19049B 22216.00000000 -.00003422 00000+0 00000+0 0 2163 2 44476 0.0001 25.2968 0000890 337.9467 11.2318 1.00271050 19 INTELSAT 39 (IS-39) [PM] 1 44476C 19049B 22216.21287037 .00000125 00000+0 00000+0 0 2169 2 44476 0.0126 335.8201 0000890 19.9542 95.5461 1.00272143 16 INTELSAT 39 (IS-39) 1 44476C 19049B 22220.00000000 .00000110 00000+0 00000+0 0 2203 2 44476 0.0001 49.9788 0000976 327.9952 0.4436 1.00271036 10 GALAXY 30 (G-30) 1 46114C 20056C 22216.00000000 .00000127 00000+0 00000+0 0 2162 2 46114 0.0263 283.3969 0002366 210.4356 53.7076 1.00270412 13 GALAXY 30 (G-30) [PM] 1 46114C 20056C 22217.30208333 -.00003525 00000+0 00000+0 0 2172 2 46114 0.0001 47.8368 0002482 88.9214 160.8095 1.00271099 12 GALAXY 30 (G-30) 1 46114C 20056C 22219.93656250 .00000126 00000+0 00000+0 0 2193 2 46114 0.0024 83.2864 0002553 55.6330 29.6512 1.00271128 10 GALAXY 30 (G-30) [PM] 1 46114C 20056C 22222.74166667 .00000094 00000+0 00000+0 0 2222 2 46114 0.0000 127.0548 0002779 18.8690 315.2505 1.00270839 14